Regional Weather Roundup
Issued by NWS

Home | Current Version | Previous Version | Graphics & Text | Print | Product List | Glossary On
Versions: 1 2 3 4 5 6 7 8 9 10 11 12 13 14 15 16 17 18 19 20 21 22 23 24 25 26 27 28 29 30 31 32 33 34 35 36 37 38 39 40 41 42 43 44 45 46 47 48 49 50
000
ASUS43 KBIS 220302
RWRND

NORTH DAKOTA REGIONAL WEATHER ROUNDUP
NATIONAL WEATHER SERVICE BISMARCK ND
1000 PM CDT THU SEP 21 2017

NOTE: "FAIR" INDICATES FEW OR NO CLOUDS BELOW 12,000 FEET WITH NO
SIGNIFICANT WEATHER AND/OR OBSTRUCTIONS TO VISIBILITY.


NDZ001>003-009>011-017-220400-
NORTHWEST NORTH DAKOTA

CITY           SKY/WX    TMP DP  RH WIND       PRES   REMARKS
WILLISTON      PTCLDY    50  39  66 N9        29.89R
MINOT          CLOUDY    54  41  61 NW12      29.83R
MINOT AFB      PTCLDY    51  41  69 NW9       29.82R
$$

NDZ018>021-031>035-040>046-220400-
SOUTHWEST NORTH DAKOTA

CITY           SKY/WX    TMP DP  RH WIND       PRES   REMARKS
BISMARCK       CLEAR     63  46  54 N12       29.77R
DICKINSON      CLEAR     52  37  56 N13       29.82R
GARRISON         N/A     53  44  71 N10       29.82R
HETTINGER ARPT CLEAR     54  39  57 N10       29.83R
$$

NDZ004>008-012>016-024-026-027-054-220400-
NORTHEAST NORTH DAKOTA

CITY           SKY/WX    TMP DP  RH WIND       PRES   REMARKS
GRAND FORKS    PTCLDY    70  58  65 SE15      29.70S
GRND FRKS AFB  CLEAR     67  56  67 SE6       29.71R
DEVILS LAKE    CLOUDY    62  52  69 N14       29.76R
$$

NDZ022-023-025-028>030-036>039-047>053-220400-
SOUTHEAST NORTH DAKOTA

CITY           SKY/WX    TMP DP  RH WIND       PRES   REMARKS
FARGO          PTCLDY    74  65  73 SE13      29.70S
JAMESTOWN      CLEAR     66  58  75 N8        29.72R
$$




USA.gov is the U.S. government's official web portal to all federal, state and local government web resources and services.